Time,TemperatureF,DewpointF,PressureIn,WindDirection,WindDirectionDegrees,WindSpeedMPH,WindSpeedGustMPH,Humidity,HourlyPrecipIn,Conditions,Clouds,dailyrainin,SoftwareType,DateUTC
2013-08-11 00:11:00,57.7,55.1,29.96,NW,315,1.1,-999.0,91,-99.99,,,0.00,Acu-Link.com,2013-08-11 04:11:00,
2013-08-11 00:26:00,56.3,54.9,29.96,NW,315,0.0,-999.0,95,-99.99,,,0.00,Acu-Link.com,2013-08-11 04:26:00,
2013-08-11 00:42:00,55.6,54.8,29.96,WNW,292,0.0,-999.0,97,-99.99,,,0.00,Acu-Link.com,2013-08-11 04:42:00,
2013-08-11 00:57:00,54.7,54.1,29.96,WNW,292,1.1,-999.0,98,-99.99,,,0.00,Acu-Link.com,2013-08-11 04:57:00,
2013-08-11 01:12:00,53.8,53.2,29.96,WNW,292,0.0,-999.0,98,-99.99,,,0.00,Acu-Link.com,2013-08-11 05:12:00,
2013-08-11 01:42:00,52.2,51.7,29.96,North,0,0.0,-999.0,98,-99.99,,,0.00,Acu-Link.com,2013-08-11 05:42:00,
2013-08-11 01:58:00,52.0,51.5,29.96,North,0,0.0,-999.0,98,-99.99,,,0.00,Acu-Link.com,2013-08-11 05:58:00,
2013-08-11 02:28:00,51.1,50.6,29.97,North,0,0.0,-999.0,98,-99.99,,,0.00,Acu-Link.com,2013-08-11 06:28:00,
2013-08-11 02:58:00,50.9,50.4,29.96,North,0,0.0,-999.0,98,-99.99,,,0.00,Acu-Link.com,2013-08-11 06:58:00,
2013-08-11 03:14:00,50.5,50.0,29.96,North,0,0.0,-999.0,98,-99.99,,,0.00,Acu-Link.com,2013-08-11 07:14:00,
2013-08-11 03:29:00,50.4,49.9,29.95,North,0,0.0,-999.0,98,-99.99,,,0.00,Acu-Link.com,2013-08-11 07:29:00,
2013-08-11 03:45:00,50.5,50.0,29.95,East,90,2.2,-999.0,98,-99.99,,,0.00,Acu-Link.com,2013-08-11 07:45:00,
2013-08-11 04:16:00,50.4,49.9,29.96,WNW,292,0.0,-999.0,98,-99.99,,,0.00,Acu-Link.com,2013-08-11 08:16:00,
2013-08-11 04:48:00,50.5,50.0,29.96,North,0,0.0,-999.0,98,-99.99,,,0.00,Acu-Link.com,2013-08-11 08:48:00,
2013-08-11 05:03:00,50.4,49.9,29.95,West,270,0.0,-999.0,98,-99.99,,,0.00,Acu-Link.com,2013-08-11 09:03:00,
2013-08-11 05:18:00,50.2,49.7,29.96,NW,315,0.0,-999.0,98,-99.99,,,0.00,Acu-Link.com,2013-08-11 09:18:00,
2013-08-11 05:48:00,49.5,49.0,29.96,WNW,292,2.2,-999.0,98,-99.99,,,0.00,Acu-Link.com,2013-08-11 09:48:00,
2013-08-11 06:04:00,49.3,48.8,29.97,NNE,22,1.7,-999.0,98,-99.99,,,0.00,Acu-Link.com,2013-08-11 10:04:00,
2013-08-11 06:34:00,49.1,48.6,29.98,WNW,292,0.0,-999.0,98,-99.99,,,0.00,Acu-Link.com,2013-08-11 10:34:00,
2013-08-11 06:49:00,49.1,48.6,29.98,SSE,157,0.0,-999.0,98,-99.99,,,0.00,Acu-Link.com,2013-08-11 10:49:00,
2013-08-11 07:04:00,50.4,49.9,29.98,North,0,0.0,-999.0,98,-99.99,,,0.00,Acu-Link.com,2013-08-11 11:04:00,
2013-08-11 07:19:00,51.3,50.8,29.99,North,0,0.0,-999.0,98,-99.99,,,0.00,Acu-Link.com,2013-08-11 11:19:00,
2013-08-11 07:34:00,51.8,51.3,29.99,North,0,0.0,-999.0,98,-99.99,,,0.00,Acu-Link.com,2013-08-11 11:34:00,
2013-08-11 08:05:00,55.2,54.6,29.99,NE,45,0.0,-999.0,98,-99.99,,,0.00,Acu-Link.com,2013-08-11 12:05:00,
2013-08-11 08:20:00,57.6,57.0,30.00,NE,45,0.0,-999.0,98,-99.99,,,0.00,Acu-Link.com,2013-08-11 12:20:00,
2013-08-11 08:35:00,59.2,58.6,30.00,NE,45,0.0,-999.0,98,-99.99,,,0.00,Acu-Link.com,2013-08-11 12:35:00,
2013-08-11 08:51:00,60.4,58.1,29.99,NW,315,0.0,-999.0,92,-99.99,,,0.00,Acu-Link.com,2013-08-11 12:51:00,
2013-08-11 09:06:00,62.1,59.4,30.01,SE,135,0.0,-999.0,91,-99.99,,,0.00,Acu-Link.com,2013-08-11 13:06:00,
2013-08-11 09:21:00,64.0,59.7,30.00,West,270,0.0,-999.0,86,-99.99,,,0.00,Acu-Link.com,2013-08-11 13:21:00,
2013-08-11 09:36:00,68.7,60.4,30.00,South,180,2.2,-999.0,75,-99.99,,,0.00,Acu-Link.com,2013-08-11 13:36:00,
2013-08-11 09:51:00,69.1,61.6,30.02,East,90,1.1,-999.0,77,-99.99,,,0.00,Acu-Link.com,2013-08-11 13:51:00,
2013-08-11 10:07:00,71.6,58.8,30.01,SSW,202,0.0,-999.0,64,-99.99,,,0.00,Acu-Link.com,2013-08-11 14:07:00,
2013-08-11 10:37:00,69.3,60.3,30.01,ESE,112,0.0,-999.0,73,-99.99,,,0.00,Acu-Link.com,2013-08-11 14:37:00,
2013-08-11 10:53:00,68.9,58.3,30.01,SW,225,0.0,-999.0,69,-99.99,,,0.00,Acu-Link.com,2013-08-11 14:53:00,
2013-08-11 11:08:00,67.6,62.2,30.01,SW,225,0.0,-999.0,83,-99.99,,,0.00,Acu-Link.com,2013-08-11 15:08:00,
2013-08-11 11:23:00,68.0,61.2,30.00,NW,315,2.7,-999.0,79,-99.99,,,0.00,Acu-Link.com,2013-08-11 15:23:00,
2013-08-11 11:39:00,69.8,59.6,30.00,WNW,292,1.7,-999.0,70,-99.99,,,0.00,Acu-Link.com,2013-08-11 15:39:00,
2013-08-11 12:09:00,74.3,60.9,30.00,ENE,67,2.7,-999.0,63,-99.99,,,0.00,Acu-Link.com,2013-08-11 16:09:00,
2013-08-11 12:24:00,72.9,60.9,30.00,WNW,292,1.7,-999.0,66,-99.99,,,0.00,Acu-Link.com,2013-08-11 16:24:00,
2013-08-11 12:55:00,73.6,59.8,29.99,West,270,2.7,-999.0,62,-99.99,,,0.00,Acu-Link.com,2013-08-11 16:55:00,
2013-08-11 13:25:00,73.4,59.6,29.98,NW,315,1.1,-999.0,62,-99.99,,,0.00,Acu-Link.com,2013-08-11 17:25:00,
2013-08-11 13:41:00,74.5,60.2,29.99,NE,45,2.7,-999.0,61,-99.99,,,0.00,Acu-Link.com,2013-08-11 17:41:00,
2013-08-11 13:56:00,72.7,59.4,29.98,NE,45,1.1,-999.0,63,-99.99,,,0.00,Acu-Link.com,2013-08-11 17:56:00,
2013-08-11 14:11:00,72.5,59.2,29.97,West,270,1.1,-999.0,63,-99.99,,,0.00,Acu-Link.com,2013-08-11 18:11:00,
2013-08-11 14:42:00,73.4,58.2,29.97,NW,315,1.7,-999.0,59,-99.99,,,0.00,Acu-Link.com,2013-08-11 18:42:00,
2013-08-11 15:27:00,74.1,58.4,29.96,NW,315,1.7,-999.0,58,-99.99,,,0.00,Acu-Link.com,2013-08-11 19:27:00,
2013-08-11 15:43:00,74.1,57.9,29.95,SSE,157,1.1,-999.0,57,-99.99,,,0.00,Acu-Link.com,2013-08-11 19:43:00,
2013-08-11 15:58:00,73.9,60.0,29.96,North,0,1.7,-999.0,62,-99.99,,,0.00,Acu-Link.com,2013-08-11 19:58:00,
2013-08-11 16:28:00,73.2,57.5,29.95,North,0,2.2,-999.0,58,-99.99,,,0.00,Acu-Link.com,2013-08-11 20:28:00,
2013-08-11 16:43:00,73.4,60.0,29.94,NW,315,2.2,-999.0,63,-99.99,,,0.00,Acu-Link.com,2013-08-11 20:43:00,
2013-08-11 16:59:00,73.0,60.5,29.95,NNE,22,2.2,-999.0,65,-99.99,,,0.00,Acu-Link.com,2013-08-11 20:59:00,
2013-08-11 17:14:00,72.7,60.2,29.95,NW,315,0.0,-999.0,65,-99.99,,,0.00,Acu-Link.com,2013-08-11 21:14:00,
2013-08-11 17:29:00,72.5,61.3,29.94,WSW,247,0.0,-999.0,68,-99.99,,,0.00,Acu-Link.com,2013-08-11 21:29:00,
2013-08-11 17:44:00,71.6,62.1,29.94,WSW,247,0.0,-999.0,72,-99.99,,,0.00,Acu-Link.com,2013-08-11 21:44:00,
2013-08-11 17:59:00,71.1,64.2,29.94,WSW,247,0.0,-999.0,79,-99.99,,,0.00,Acu-Link.com,2013-08-11 21:59:00,
2013-08-11 19:00:00,66.2,61.6,29.94,NW,315,0.0,-999.0,85,-99.99,,,0.00,Acu-Link.com,2013-08-11 23:00:00,
2013-08-11 19:46:00,62.8,61.3,29.95,NW,315,0.0,-999.0,95,-99.99,,,0.00,Acu-Link.com,2013-08-11 23:46:00,
2013-08-11 20:01:00,62.2,61.3,29.95,WNW,292,0.0,-999.0,97,-99.99,,,0.00,Acu-Link.com,2013-08-12 00:01:00,
2013-08-11 20:31:00,60.8,60.2,29.96,NW,315,0.0,-999.0,98,-99.99,,,0.00,Acu-Link.com,2013-08-12 00:31:00,
2013-08-11 20:47:00,59.9,59.3,29.96,NW,315,0.0,-999.0,98,-99.99,,,0.00,Acu-Link.com,2013-08-12 00:47:00,
2013-08-11 21:17:00,59.0,58.4,29.98,South,180,0.0,-999.0,98,-99.99,,,0.00,Acu-Link.com,2013-08-12 01:17:00,
2013-08-11 21:32:00,58.5,57.9,29.97,WNW,292,0.0,-999.0,98,-99.99,,,0.00,Acu-Link.com,2013-08-12 01:32:00,
2013-08-11 21:48:00,57.9,57.3,29.97,WNW,292,0.0,-999.0,98,-99.99,,,0.00,Acu-Link.com,2013-08-12 01:48:00,
2013-08-11 22:03:00,57.7,57.1,29.98,North,0,0.0,-999.0,98,-99.99,,,0.00,Acu-Link.com,2013-08-12 02:03:00,
2013-08-11 22:18:00,57.2,56.6,29.98,NW,315,0.0,-999.0,98,-99.99,,,0.00,Acu-Link.com,2013-08-12 02:18:00,
2013-08-11 22:33:00,56.7,56.1,29.97,NW,315,0.0,-999.0,98,-99.99,,,0.00,Acu-Link.com,2013-08-12 02:33:00,
2013-08-11 23:04:00,55.9,55.3,29.97,NW,315,0.0,-999.0,98,-99.99,,,0.00,Acu-Link.com,2013-08-12 03:04:00,
2013-08-11 23:19:00,55.6,55.0,29.98,NW,315,0.0,-999.0,98,-99.99,,,0.00,Acu-Link.com,2013-08-12 03:19:00,
2013-08-11 23:34:00,55.2,54.6,29.98,NW,315,0.0,-999.0,98,-99.99,,,0.00,Acu-Link.com,2013-08-12 03:34:00,